Location: Peebles
(55.6412°N, 3.1714°W)
Time: 16:10:13
(UTC+01:00)

Cosmos 1300 Rocket - Pass Details

Date: 26 September 2021
Orbit: 601 x 627 km, 82.5° (Epoch: 18 October)

Event Time Altitude Azimuth Distance (km) Brightness Sun altitude
Rises 20:59:00 0° 186° (S) 2,882 6.8 -17.1°
Reaches altitude 10° 21:01:13 10° 186° (S) 1,977 6.0 -17.4°
Maximum altitude 21:05:36 79° 100° (E) 631 3.4 -18.0°
Drops below altitude 10° 21:09:58 10° 14° (NNE) 1,976 6.3 -18.5°
Sets 21:12:11 0° 13° (NNE) 2,882 7.2 -18.8°
